Istanbul, Turkey

12:11 PM +03 on May 25, 2017 (GMT +0300)
Ataturk

Weather History for LTBA - June, 2013

Change the Weather History Date:

Sunday, June 30, 2013

  Actual Average Record
Temperature  
Mean Temperature 74 °F -  
Max Temperature 78 °F 83 °F 89 °F (1998)
Min Temperature 69 °F 69 °F 64 °F (2000)
Cooling Degree Days 8    
Growing Degree Days 24 (Base 50)    
Moisture  
Dew Point 65 °F    
Average Humidity 72    
Maximum Humidity 94    
Minimum Humidity 57    
Precipitation  
Precipitation 0.08 in - - ()
Sea Level Pressure  
Sea Level Pressure 29.70 in    
Wind  
Wind Speed 8 mph ()    
Max Wind Speed 21 mph    
Max Gust Speed -    
Visibility 6.1 miles    
Events Rain , Thunderstorm    
Averages and records for this station are not official NWS values.
T = Trace of Precipitation, MM = Missing Value Source: Averaged Metar Reports

Daily Weather History Graph

Daily Weather History Graph

Search for Another Location

Airport or City:

Trip Planner

Search our weather history database for the weather conditions in past years. The results will help you decide how hot, cold, wet, or windy it might be!

Date:

Astronomy

Jun. 30, 2013 Rise Set
Actual Time 5:35 AM EEST 8:40 PM EEST
Civil Twilight 5:02 AM EEST 9:14 PM EEST
Nautical Twilight 4:19 AM EEST 9:56 PM EEST
Astronomical Twilight 3:29 AM EEST 10:47 PM EEST
Moon 12:27 AM EEST (6/30) 1:33 PM EEST (6/30)
Length of Visible Light 16h 11m
Length of Day
15h 04m
Waning Gibbous, 48% of the Moon is Illuminated
Jun 30
Waning Gibbous
Jul 8
New
Jul 16
First Quarter
Jul 22
Full
Jul 29
Last Quarter

Hourly Weather History & Observations

Time (EEST) Temp. Dew Point Humidity Pressure Visibility Wind Dir Wind Speed Gust Speed Precip Events Conditions
12:20 AM 77.0 °F 68.0 °F 74% 29.71 in 6.2 mi NE 10.4 mph - N/A   Scattered Clouds
12:50 AM 77.0 °F 68.0 °F 74% 29.71 in 6.2 mi NE 8.1 mph - N/A   Scattered Clouds
1:20 AM 77.0 °F 68.0 °F 74% 29.71 in 6.2 mi ENE 9.2 mph - N/A   Scattered Clouds
1:50 AM 75.2 °F 68.0 °F 78% 29.71 in 6.2 mi NE 9.2 mph - N/A   Scattered Clouds
2:20 AM 75.2 °F 68.0 °F 78% 29.68 in 6.2 mi Variable 6.9 mph - N/A   Scattered Clouds
2:50 AM 75.2 °F 68.0 °F 78% 29.68 in 6.2 mi ENE 4.6 mph - N/A   Scattered Clouds
3:00 AM 76 °F 68 °F 69% 29.70 in 6 mi ENE 4.6 mph - -   Partly Cloudy
3:20 AM 75.2 °F 68.0 °F 78% 29.68 in 6.2 mi ENE 6.9 mph - N/A   Scattered Clouds
3:50 AM 75.2 °F 68.0 °F 78% 29.68 in 6.2 mi ENE 4.6 mph - N/A   Scattered Clouds
4:20 AM 75.2 °F 68.0 °F 78% 29.68 in 6.2 mi ENE 6.9 mph - N/A   Scattered Clouds
4:50 AM 75.2 °F 68.0 °F 78% 29.65 in 6.2 mi East 5.8 mph - N/A   Scattered Clouds
5:20 AM 75.2 °F 68.0 °F 78% 29.68 in 6.2 mi East 4.6 mph - N/A   Scattered Clouds
5:50 AM 75.2 °F 68.0 °F 78% 29.65 in 6.2 mi East 4.6 mph - N/A   Scattered Clouds
6:20 AM 73.4 °F 68.0 °F 83% 29.65 in 6.2 mi SE 5.8 mph - N/A   Mostly Cloudy
6:50 AM 73.4 °F 69.8 °F 88% 29.65 in 6.2 mi SSE 5.8 mph - N/A   Mostly Cloudy
7:20 AM 73.4 °F 71.6 °F 94% 29.65 in 4.3 mi South 9.2 mph - N/A   Mostly Cloudy
7:50 AM 71.6 °F 69.8 °F 94% 29.65 in 4.3 mi SSW 11.5 mph - N/A   Mostly Cloudy
8:20 AM 73.4 °F 71.6 °F 94% 29.65 in 4.3 mi WSW 9.2 mph - N/A   Mostly Cloudy
8:50 AM 75.2 °F 69.8 °F 83% 29.68 in 6.2 mi WSW 6.9 mph - N/A   Mostly Cloudy
9:00 AM 75 °F 69 °F 76% 29.68 in 6 mi WSW 6.9 mph - -   Mostly Cloudy
9:20 AM 73.4 °F 62.6 °F 69% 29.68 in 6.2 mi NNW 15.0 mph - N/A   Mostly Cloudy
9:50 AM 73.4 °F 62.6 °F 69% 29.71 in 6.2 mi NNW 19.6 mph - N/A   Mostly Cloudy
10:20 AM 73.4 °F 60.8 °F 65% 29.71 in 6.2 mi NNW 20.7 mph - N/A   Mostly Cloudy
10:50 AM 75.2 °F 60.8 °F 61% 29.71 in 6.2 mi NNW 18.4 mph - N/A   Scattered Clouds
11:20 AM 75.2 °F 60.8 °F 61% 29.71 in 6.2 mi NNW 13.8 mph - N/A   Scattered Clouds
11:50 AM 77.0 °F 60.8 °F 57% 29.71 in 6.2 mi NE 3.5 mph - N/A   Scattered Clouds
12:20 PM 77.0 °F 60.8 °F 57% 29.71 in 6.2 mi SSW 5.8 mph - N/A   Scattered Clouds
12:50 PM 77.0 °F 62.6 °F 61% 29.71 in 6.2 mi South 9.2 mph - N/A   Scattered Clouds
1:20 PM 77.0 °F 62.6 °F 61% 29.71 in 6.2 mi South 10.4 mph - N/A   Scattered Clouds
1:50 PM 77.0 °F 62.6 °F 61% 29.71 in 6.2 mi SSW 10.4 mph - N/A   Scattered Clouds
2:20 PM 75.2 °F 62.6 °F 65% 29.71 in 6.2 mi SW 12.7 mph - N/A   Scattered Clouds
3:00 PM 76 °F 64 °F 57% 29.71 in 6 mi SW 11.5 mph - -   Partly Cloudy
3:20 PM 75.2 °F 62.6 °F 65% 29.71 in 6.2 mi SSW 10.4 mph - N/A   Scattered Clouds
3:50 PM 73.4 °F 62.6 °F 69% 29.71 in - SW 9.2 mph - N/A   Clear
4:20 PM 73.4 °F 62.6 °F 69% 29.68 in 6.2 mi WSW 9.2 mph - N/A   Scattered Clouds
4:50 PM 75.2 °F 62.6 °F 65% 29.71 in 6.2 mi WSW 10.4 mph - N/A   Scattered Clouds
5:20 PM 73.4 °F 62.6 °F 69% 29.68 in 6.2 mi SW 11.5 mph - N/A   Scattered Clouds
5:50 PM 73.4 °F 62.6 °F 69% 29.71 in 6.2 mi SW 10.4 mph - N/A   Scattered Clouds
6:20 PM 75.2 °F 62.6 °F 65% 29.68 in 6.2 mi SW 8.1 mph - N/A   Scattered Clouds
6:50 PM 75.2 °F 62.6 °F 65% 29.68 in 6.2 mi SW 9.2 mph - N/A   Scattered Clouds
7:20 PM 73.4 °F 62.6 °F 69% 29.68 in 6.2 mi SW 8.1 mph - N/A   Scattered Clouds
7:50 PM 73.4 °F 64.4 °F 73% 29.71 in 6.2 mi SW 8.1 mph - N/A   Scattered Clouds
8:20 PM 73.4 °F 64.4 °F 73% 29.71 in 6.2 mi SW 8.1 mph - N/A   Scattered Clouds
8:50 PM 73.4 °F 64.4 °F 73% 29.71 in 6.2 mi SW 8.1 mph - N/A   Scattered Clouds
9:00 PM 73 °F 64 °F 66% 29.72 in 6 mi SW 8.1 mph - -   Partly Cloudy
9:20 PM 73.4 °F 64.4 °F 73% 29.74 in 6.2 mi SW 8.1 mph - N/A   Mostly Cloudy
9:50 PM 73.4 °F 64.4 °F 73% 29.74 in 6.2 mi WSW 6.9 mph - N/A Rain Light Rain Showers
10:17 PM 73.4 °F 64.4 °F 73% 29.74 in 6.2 mi WSW 9.2 mph - N/A Rain , Thunderstorm Light Thunderstorms and Rain
10:20 PM 73.4 °F 62.6 °F 69% 29.74 in 6.2 mi WSW 10.4 mph - N/A Rain , Thunderstorm Light Thunderstorms and Rain
10:38 PM 71.6 °F 62.6 °F 73% 29.74 in 6.2 mi WNW 9.2 mph - N/A Rain , Thunderstorm Thunderstorms and Rain
10:50 PM 69.8 °F 60.8 °F 73% 29.74 in 6.2 mi West 4.6 mph - N/A Rain , Thunderstorm Light Thunderstorms and Rain
11:03 PM 69.8 °F 62.6 °F 78% 29.74 in 6.2 mi WSW 3.5 mph - N/A Rain Light Rain Showers
11:20 PM 69.8 °F 62.6 °F 78% 29.74 in 6.2 mi SW 5.8 mph - N/A Rain Light Rain Showers
11:41 PM 69.8 °F 62.6 °F 78% 29.74 in 6.2 mi SW 5.8 mph - N/A   Mostly Cloudy
11:50 PM 69.8 °F 62.6 °F 78% 29.74 in 6.2 mi SSW 4.6 mph - N/A   Mostly Cloudy